Location: ????????
(37.6846°N, 24.0673°E)
Time: 04:31:17
(UTC+00:00)

Lacrosse 5 - Pass Details

Date: 14 July 2020
Orbit: 717 x 720 km, 57.0° (Epoch: 09 August)

Event Time Altitude Azimuth Distance (km) Brightness Sun altitude
Exits shadow 00:10:41 - 292° (WNW) 2,474 4.6 -26.1°
Reaches altitude 10° 00:11:54 10° 303° (WNW) 2,201 4.4 -26.0°
Maximum altitude 00:14:37 14° 336° (NNW) 1,920 4.5 -25.7°
Drops below altitude 10° 00:17:20 10° 8° (N) 2,204 5.3 -25.5°
Sets 00:20:52 0° 33° (NNE) 3,126 6.5 -25.2°
